GW2699 Weather Reports


time (UTC)temp
F
wind
direction
speed
knots
gust
knots
rain 1hr
in
rain 24hr
in
rain mn
in
humidity
%
barometer
mb
20260507081554 49 0 0.0 0.0 0.00 0.31 0.00 85 1005.8
20260507081042 50 0 0.0 3.5 0.00 0.31 0.00 84 1005.9
20260507080543 50 0 0.0 3.5 0.00 0.31 0.00 84 1006.2
20260507080052 50 0 0.9 3.5 0.00 0.31 0.00 83 1006.1
20260507075542 50 265 0.9 3.5 0.00 0.31 0.00 84 1005.9
20260507075042 50 0 0.0 3.5 0.00 0.31 0.00 84 1005.9
20260507074601 50 294 0.9 6.1 0.00 0.31 0.00 84 1005.8
20260507074040 50 0 0.9 6.1 0.00 0.31 0.00 84 1005.7
20260507073547 50 321 0.9 3.5 0.00 0.31 0.00 85 1005.7
20260507073049 50 0 0.0 4.3 0.00 0.31 0.00 85 1005.7
20260507072543 50 0 0.9 4.3 0.00 0.31 0.00 85 1005.7
20260507072042 50 0 0.0 4.3 0.00 0.31 0.00 85 1005.5
20260507071546 50 309 1.7 6.1 0.00 0.31 0.00 85 1005.8
20260507071043 50 321 1.7 6.1 0.00 0.31 0.00 84 1005.8
20260507070543 50 294 0.9 9.6 0.00 0.31 0.00 85 1005.5
20260507070048 50 22 0.9 9.6 0.00 0.31 0.00 85 1005.4
20260507065542 50 261 0.9 7.8 0.00 0.31 0.00 84 1005.7
20260507065042 51 194 1.7 7.8 0.00 0.31 0.00 85 1005.6
20260507064550 50 280 0.9 7.8 0.00 0.31 0.00 85 1005.5
20260507064042 50 0 1.7 7.8 0.00 0.31 0.00 86 1005.3
20260507063542 51 279 0.0 4.3 0.00 0.31 0.00 86 1005.2
20260507063051 51 0 0.9 6.1 0.00 0.31 0.00 87 1005.4
20260507062543 51 166 0.9 6.1 0.00 0.31 0.00 87 1005.2
20260507062044 51 246 0.9 6.1 0.00 0.31 0.00 87 1005.3
20260507061548 51 0 0.0 6.1 0.00 0.31 0.00 87 1005.5
20260507061044 51 204 0.9 5.2 0.00 0.31 0.00 87 1005.5
20260507060542 51 175 0.9 4.3 0.00 0.31 0.00 86 1005.6
20260507060048 51 0 0.9 4.3 0.00 0.31 0.00 87 1005.5
20260507055543 51 0 0.9 4.3 0.00 0.31 0.00 87 1005.5
20260507055045 52 181 0.0 7.0 0.00 0.31 0.00 87 1005.5
20260507054607 52 144 1.7 7.0 0.00 0.31 0.00 87 1005.5
20260507054042 52 182 0.0 4.3 0.00 0.31 0.00 87 1005.2
20260507053545 52 221 0.9 4.3 0.00 0.31 0.00 87 1005.4
20260507053053 52 0 0.9 5.2 0.00 0.31 0.00 87 1005.5
20260507052542 52 0 0.9 5.2 0.00 0.31 0.00 87 1005.4
20260507052042 52 261 1.7 6.1 0.00 0.31 0.00 87 1005.4
20260507051550 53 279 0.9 6.1 0.00 0.31 0.00 86 1005.1
20260507051048 53 217 0.0 5.2 0.00 0.31 0.00 87 1005.1
20260507050543 53 274 1.7 5.2 0.00 0.31 0.00 87 1005.0
20260507050056 53 0 0.9 4.3 0.00 0.31 0.00 87 1005.1
20260507045544 53 215 0.0 6.1 0.00 0.31 0.00 87 1005.3
20260507045043 53 278 0.9 7.0 0.00 0.31 0.00 87 1005.2
20260507044554 54 0 1.7 7.0 0.00 0.31 0.00 87 1005.2
20260507044042 54 211 0.9 5.2 0.00 0.31 0.00 88 1005.3
20260507043542 54 204 0.9 5.2 0.00 0.31 0.00 88 1005.4
20260507043053 54 225 0.9 7.0 0.00 0.31 0.00 88 1005.3
20260507042543 54 248 1.7 7.0 0.00 0.31 0.00 87 1005.2
20260507042043 55 247 0.0 6.1 0.00 0.31 0.00 87 1005.0
20260507041600 55 210 0.9 6.1 0.00 0.31 0.00 87 1005.0
20260507041043 55 0 1.7 7.8 0.00 0.31 0.00 87 1005.1
20260507040543 55 254 2.6 7.8 0.00 0.31 0.00 87 1005.2
20260507040051 55 242 0.9 4.3 0.00 0.31 0.00 87 1004.9
20260507035543 55 257 0.9 5.2 0.00 0.31 0.31 86 1004.7
20260507035043 56 294 0.9 5.2 0.00 0.31 0.31 86 1004.5
20260507034556 56 297 0.9 3.5 0.00 0.31 0.31 85 1004.5
20260507034042 56 319 0.9 6.1 0.00 0.31 0.31 86 1004.5
20260507033543 56 248 1.7 11.3 0.00 0.31 0.31 87 1004.5
20260507033100 57 230 1.7 11.3 0.00 0.31 0.31 88 1004.7
20260507032543 57 309 1.7 10.4 0.00 0.31 0.31 88 1004.8
20260507032042 58 340 2.6 10.4 0.00 0.31 0.31 89 1004.7
20260507031601 59 325 2.6 9.6 0.00 0.31 0.31 90 1004.7
20260507031042 59 315 0.9 9.6 0.00 0.31 0.31 93 1004.4
20260507030541 60 319 1.7 9.6 0.00 0.31 0.31 93 1004.2
20260507030054 60 342 2.6 10.4 0.00 0.31 0.31 94 1004.2
20260507025541 60 279 2.6 10.4 0.00 0.31 0.31 94 1004.2
20260507025041 60 0 0.9 3.5 0.00 0.31 0.31 94 1003.9
20260507024548 60 197 0.0 3.5 0.00 0.31 0.31 94 1003.9
20260507024115 59 239 0.9 4.3 0.00 0.31 0.31 94 1003.9
20260507023541 60 0 0.0 4.3 0.00 0.31 0.31 94 1003.8
20260507023051 60 192 0.9 4.3 0.00 0.31 0.31 94 1004.0
20260507022542 60 189 0.9 4.3 0.00 0.31 0.31 94 1003.9
20260507022042 60 183 1.7 3.5 0.00 0.31 0.31 94 1003.7
20260507021549 59 229 0.9 3.5 0.00 0.31 0.31 94 1003.7
20260507021044 60 226 0.9 3.5 0.00 0.31 0.31 94 1003.9
20260507020542 60 217 0.9 4.3 0.00 0.31 0.31 94 1003.9
20260507020048 60 217 0.9 4.3 0.00 0.31 0.31 93 1004.0
20260507015541 60 183 0.9 4.3 0.00 0.31 0.31 94 1004.0
20260507015041 60 213 0.9 6.1 0.00 0.31 0.31 94 1004.1
20260507014600 60 215 0.9 6.1 0.00 0.31 0.31 94 1004.2
20260507014042 60 205 0.0 5.2 0.00 0.31 0.31 94 1004.2
20260507013543 60 207 0.9 5.2 0.00 0.31 0.31 94 1004.2
20260507013047 60 0 0.0 3.5 0.00 0.31 0.31 94 1004.1
20260507012542 60 0 0.0 2.6 0.00 0.31 0.31 93 1004.2
20260507012041 60 205 0.9 4.3 0.00 0.31 0.31 94 1004.2
20260507011548 60 180 1.7 4.3 0.00 0.31 0.31 93 1004.3
20260507011042 60 213 0.0 4.3 0.00 0.31 0.31 94 1004.2
20260507010542 60 0 1.7 5.2 0.00 0.31 0.31 94 1004.3
20260507010048 60 203 1.7 5.2 0.00 0.31 0.31 94 1004.3
20260507005542 60 254 0.0 6.1 0.01 0.31 0.31 94 1004.1
20260507005041 60 244 0.0 6.1 0.01 0.31 0.31 94 1004.2
20260507004550 59 200 1.7 5.2 0.01 0.31 0.31 94 1004.3
20260507004042 59 215 0.9 4.3 0.01 0.31 0.31 94 1004.3
20260507003546 60 201 0.9 7.0 0.02 0.31 0.31 94 1004.0
20260507003050 60 184 1.7 7.0 0.02 0.31 0.31 94 1004.2
20260507002541 59 248 0.0 3.5 0.02 0.31 0.31 94 1004.1
20260507002042 59 206 0.0 5.2 0.03 0.31 0.31 94 1004.1
20260507001548 59 178 0.0 7.0 0.03 0.31 0.31 94 1004.1
20260507001042 60 198 0.9 7.0 0.03 0.31 0.31 93 1004.1
20260507000545 60 232 0.9 3.5 0.03 0.31 0.31 93 1004.0
20260507000044 60 176 0.9 4.3 0.03 0.31 0.31 94 1004.1
20260506235542 60 176 0.9 4.3 0.02 0.30 0.30 94 1004.0
20260506235046 60 182 0.9 4.3 0.02 0.30 0.30 93 1004.0
20260506234546 60 49 0.9 4.3 0.02 0.30 0.30 93 1004.0
20260506234045 60 205 0.0 3.5 0.02 0.30 0.30 93 1004.0
20260506233541 60 192 0.9 3.5 0.01 0.29 0.29 93 1003.9
20260506233107 60 220 0.9 3.5 0.01 0.29 0.29 93 1004.1
20260506232542 60 53 1.7 6.1 0.00 0.28 0.28 93 1004.1
20260506232042 60 177 0.9 6.1 0.00 0.28 0.28 93 1004.2
20260506231549 60 200 0.9 5.2 0.00 0.28 0.28 93 1004.3
20260506231045 60 224 0.9 3.5 0.00 0.28 0.28 93 1004.4
20260506230544 60 111 0.0 2.6 0.01 0.28 0.28 93 1004.3
20260506230049 60 173 0.0 2.6 0.01 0.28 0.28 93 1004.3
20260506225543 60 0 0.0 3.5 0.02 0.28 0.28 93 1004.2
20260506225043 60 0 0.9 4.3 0.03 0.28 0.28 93 1004.3
20260506224554 60 226 1.7 6.1 0.04 0.28 0.28 93 1004.4
20260506224042 60 215 0.9 6.1 0.04 0.28 0.28 93 1004.4
20260506223542 60 192 1.7 6.1 0.04 0.28 0.28 93 1004.4
20260506223052 60 252 0.9 6.1 0.04 0.28 0.28 93 1004.4
20260506222543 60 171 1.7 6.1 0.05 0.28 0.28 93 1004.5
20260506222043 60 200 2.6 6.1 0.06 0.28 0.28 93 1004.5
20260506221548 60 184 0.9 5.2 0.06 0.28 0.28 93 1004.5
20260506221042 60 204 0.9 7.8 0.07 0.28 0.28 93 1004.5
20260506220543 60 188 0.0 7.8 0.07 0.27 0.27 93 1004.6
20260506220049 60 180 0.0 4.3 0.07 0.27 0.27 93 1004.7
20260506215546 61 0 0.9 4.3 0.07 0.26 0.26 93 1004.8
20260506215043 61 203 0.9 4.3 0.07 0.25 0.25 93 1004.9
20260506214551 61 190 0.9 4.3 0.07 0.24 0.24 93 1004.9
20260506214042 61 206 0.9 9.6 0.08 0.24 0.24 92 1004.9
20260506213543 61 139 1.7 9.6 0.10 0.24 0.24 92 1004.8
20260506213102 61 202 1.7 7.0 0.11 0.24 0.24 92 1004.9
20260506212543 61 208 1.7 7.0 0.11 0.23 0.23 92 1004.9
20260506212043 61 50 0.9 6.1 0.10 0.22 0.22 92 1005.0
20260506211548 61 132 2.6 6.1 0.10 0.21 0.21 92 1005.1
20260506211042 61 169 0.9 6.1 0.11 0.21 0.21 92 1005.1
20260506210543 61 213 2.6 6.1 0.10 0.20 0.20 92 1005.1
20260506210049 61 194 1.7 4.3 0.11 0.20 0.20 92 1005.1
20260506205544 61 203 0.9 5.2 0.09 0.18 0.18 92 1005.1
20260506205043 61 248 0.9 5.2 0.09 0.18 0.18 92 1005.1
20260506204552 61 197 0.9 4.3 0.09 0.17 0.17 92 1005.1
20260506204043 61 0 0.9 4.3 0.08 0.16 0.16 92 1005.3
20260506203545 61 229 0.9 4.3 0.06 0.14 0.14 91 1005.3
20260506203049 61 142 0.0 5.2 0.05 0.13 0.13 91 1005.3
20260506202545 62 0 0.0 5.2 0.05 0.12 0.12 91 1005.3
20260506202044 62 0 1.7 5.2 0.05 0.12 0.12 91 1005.3
20260506201546 62 0 0.9 4.3 0.05 0.11 0.11 91 1005.2
20260506201043 62 186 0.9 4.3 0.04 0.10 0.10 91 1005.2
20260506200543 63 0 0.0 1.7 0.04 0.10 0.10 91 1005.1
20260506200045 63 0 0.0 2.6 0.03 0.09 0.09 91 1005.1
20260506195543 63 0 0.0 2.6 0.04 0.09 0.09 90 1005.2
20260506195043 63 157 0.0 2.6 0.05 0.09 0.09 90 1005.3
20260506194555 63 121 0.0 0.0 0.05 0.08 0.08 90 1005.2
20260506194045 63 0 0.0 2.6 0.06 0.08 0.08 90 1005.4
20260506193542 63 0 0.0 2.6 0.06 0.08 0.08 90 1005.2
20260506193048 63 130 0.0 3.5 0.06 0.08 0.08 90 1005.4
20260506192542 63 136 0.9 4.3 0.06 0.07 0.07 89 1005.6
20260506192043 63 0 0.9 4.3 0.07 0.07 0.07 88 1005.7
20260506191549 63 242 0.0 2.6 0.06 0.06 0.06 88 1005.7
20260506191043 63 205 0.0 2.6 0.06 0.06 0.06 88 1005.5
20260506190543 63 0 0.0 3.5 0.06 0.06 0.06 88 1005.9
20260506190051 63 0 0.0 3.5 0.05 0.05 0.05 88 1005.9
20260506185543 63 0 0.0 3.5 0.05 0.05 0.05 87 1006.1
20260506185041 63 0 0.9 3.5 0.04 0.04 0.04 86 1006.0
20260506184550 64 0 0.0 0.0 0.03 0.03 0.03 85 1005.8
20260506184043 64 0 0.0 2.6 0.02 0.02 0.02 84 1005.5
20260506183544 64 0 0.0 3.5 0.02 0.02 0.02 80 1005.5
20260506183049 65 167 1.7 4.3 0.02 0.02 0.02 78 1005.6
20260506182544 66 171 0.9 4.3 0.01 0.01 0.01 74 1005.7
20260506182042 67 193 0.9 10.4 0.00 0.00 0.00 70 1005.7
20260506181552 68 167 2.6 12.2 0.00 0.00 0.00 67 1005.6
20260506181043 68 132 4.3 12.2 0.00 0.00 0.00 66 1005.5
20260506180546 68 275 2.6 8.7 0.00 0.00 0.00 65 1005.3
20260506175543 69 80 2.6 9.6 0.00 0.00 0.00 64 1005.4
20260506175044 69 192 3.5 9.6 0.00 0.00 0.00 64 1005.5
20260506174555 69 204 3.5 7.8 0.00 0.00 0.00 64 1005.5
20260506174043 69 0 0.9 7.0 0.00 0.00 0.00 65 1005.6
20260506173541 69 219 1.7 7.0 0.00 0.00 0.00 64 1005.5
20260506173056 69 261 2.6 7.8 0.00 0.00 0.00 64 1005.8
20260506172542 69 225 1.7 8.7 0.00 0.00 0.00 65 1005.7
20260506172043 69 173 1.7 8.7 0.00 0.00 0.00 64 1005.8
20260506171558 69 100 3.5 8.7 0.00 0.00 0.00 64 1005.9
20260506171047 70 86 2.6 7.8 0.00 0.00 0.00 63 1005.8
20260506170545 70 112 1.7 7.0 0.00 0.00 0.00 65 1005.9
20260506165543 70 135 0.9 7.0 0.00 0.00 0.00 64 1006.1
20260506165043 71 0 1.7 7.0 0.00 0.00 0.00 63 1006.1
20260506164551 71 103 1.7 8.7 0.00 0.00 0.00 61 1006.2
20260506164047 71 187 1.7 8.7 0.00 0.00 0.00 62 1006.3
20260506163546 72 183 2.6 7.8 0.00 0.00 0.00 61 1006.5
20260506163111 72 288 1.7 8.7 0.00 0.00 0.00 61 1006.4
20260506162543 71 255 2.6 8.7 0.00 0.00 0.00 63 1006.5
20260506162046 71 171 2.6 8.7 0.00 0.00 0.00 63 1006.6
20260506161606 71 220 2.6 7.0 0.00 0.00 0.00 62 1006.8
20260506161044 71 256 0.9 8.7 0.00 0.00 0.00 65 1007.0
20260506160544 71 200 3.5 11.3 0.00 0.00 0.00 61 1007.1
20260506160050 71 222 1.7 11.3 0.00 0.00 0.00 64 1007.2
20260506155545 71 128 2.6 11.3 0.00 0.00 0.00 64 1007.3
20260506155043 71 231 1.7 6.1 0.00 0.00 0.00 64 1007.4
20260506154608 71 215 2.6 10.4 0.00 0.00 0.00 63 1007.5
20260506154044 71 180 2.6 12.2 0.00 0.00 0.00 65 1007.6
20260506153544 71 265 3.5 12.2 0.00 0.00 0.00 63 1007.6
20260506153059 70 203 3.5 11.3 0.00 0.00 0.00 63 1007.7
20260506152544 70 232 0.9 7.8 0.00 0.00 0.00 67 1007.8
20260506152043 70 293 1.7 7.8 0.00 0.00 0.00 66 1007.6
20260506151548 70 205 2.6 7.0 0.00 0.00 0.00 65 1007.5
20260506151045 70 200 2.6 6.1 0.00 0.00 0.00 66 1007.7
20260506150544 69 185 0.9 6.1 0.00 0.00 0.00 67 1007.9
20260506150052 69 232 1.7 5.2 0.00 0.00 0.00 67 1007.8
20260506145544 69 130 0.9 7.0 0.00 0.00 0.00 66 1007.7
20260506145043 69 204 1.7 7.8 0.00 0.00 0.00 65 1007.6
20260506144553 70 242 2.6 7.8 0.00 0.00 0.00 66 1007.6
20260506144044 70 174 2.6 7.8 0.00 0.00 0.00 66 1007.5
20260506143544 69 248 2.6 9.6 0.00 0.00 0.00 67 1007.7
20260506143104 69 206 1.7 9.6 0.00 0.00 0.00 68 1007.6
20260506142544 68 202 3.5 9.6 0.00 0.00 0.00 67 1007.5
20260506142043 68 227 2.6 9.6 0.00 0.00 0.00 67 1007.5
20260506141550 68 0 1.7 9.6 0.00 0.00 0.00 72 1007.5
20260506141046 68 211 2.6 9.6 0.00 0.00 0.00 69 1007.6
20260506140543 67 232 2.6 9.6 0.00 0.00 0.00 69 1007.6
20260506140100 67 238 1.7 9.6 0.00 0.00 0.00 69 1007.7
20260506135544 67 200 1.7 6.1 0.00 0.00 0.00 70 1007.8
20260506135044 67 160 1.7 6.1 0.00 0.00 0.00 71 1007.8
20260506134551 67 150 2.6 7.8 0.00 0.00 0.00 71 1008.0
20260506134045 67 120 1.7 7.8 0.00 0.00 0.00 71 1008.1
20260506133544 67 194 2.6 7.8 0.00 0.00 0.00 70 1008.1
20260506133049 67 107 1.7 7.0 0.00 0.00 0.00 70 1008.1
20260506132543 67 0 2.6 7.0 0.00 0.00 0.00 71 1008.1
20260506132043 67 190 1.7 7.8 0.00 0.00 0.00 70 1008.0
20260506131551 67 227 2.6 7.8 0.00 0.00 0.00 71 1008.1
20260506131043 66 194 1.7 7.8 0.00 0.00 0.00 71 1008.1
20260506130543 66 213 0.9 6.1 0.00 0.00 0.00 71 1008.2
20260506130043 66 186 1.7 6.1 0.00 0.00 0.00 71 1008.1
20260506125546 66 192 1.7 6.1 0.00 0.00 0.00 71 1008.1
20260506125047 66 196 1.7 7.0 0.00 0.00 0.00 71 1008.1
20260506124543 66 213 2.6 7.0 0.00 0.00 0.00 71 1008.0
20260506124044 66 184 1.7 7.8 0.00 0.00 0.00 71 1008.1
20260506123544 66 106 0.9 7.8 0.00 0.00 0.00 70 1008.0
20260506123048 66 200 1.7 7.8 0.00 0.00 0.00 72 1008.2
20260506122541 66 267 1.7 7.0 0.00 0.00 0.00 72 1008.2
20260506122044 65 207 2.6 7.0 0.00 0.00 0.00 72 1008.2
20260506121546 64 195 0.9 7.0 0.00 0.00 0.00 74 1008.2
20260506121044 64 223 1.7 7.0 0.00 0.00 0.00 73 1008.2
20260506120542 64 213 0.9 7.8 0.00 0.00 0.00 73 1008.3
20260506120056 64 0 0.0 7.8 0.00 0.00 0.00 74 1008.4
20260506115543 64 175 1.7 7.8 0.00 0.00 0.00 73 1008.4
20260506115043 64 0 0.9 7.0 0.00 0.00 0.00 73 1008.5
20260506114553 64 267 2.6 7.0 0.00 0.00 0.00 72 1008.5
20260506114047 64 198 0.9 8.7 0.00 0.00 0.00 74 1008.5
20260506113545 64 195 1.7 8.7 0.00 0.00 0.00 73 1008.5
20260506113044 64 331 2.6 8.7 0.00 0.00 0.00 74 1008.6
20260506112544 63 0 0.9 4.3 0.00 0.00 0.00 74 1008.5
20260506112046 63 230 0.9 4.3 0.00 0.00 0.00 74 1008.6
20260506111549 63 205 1.7 4.3 0.00 0.00 0.00 74 1008.7
20260506111044 63 196 0.9 4.3 0.00 0.00 0.00 74 1008.7
20260506110544 62 196 0.0 4.3 0.00 0.00 0.00 74 1008.6
20260506110058 62 212 0.9 3.5 0.00 0.00 0.00 75 1008.8
20260506105544 62 144 0.0 5.2 0.00 0.00 0.00 75 1008.8
20260506105042 62 0 0.0 5.2 0.00 0.00 0.00 75 1008.8
20260506104546 62 99 0.0 4.3 0.00 0.00 0.00 75 1008.6
20260506104043 62 0 0.9 4.3 0.00 0.00 0.00 74 1008.6
20260506103543 62 232 0.9 4.3 0.00 0.00 0.00 75 1008.6
20260506103059 62 0 0.0 5.2 0.00 0.00 0.00 75 1008.7
20260506102544 62 216 1.7 5.2 0.00 0.00 0.00 74 1008.6
20260506102044 62 252 0.9 5.2 0.00 0.00 0.00 75 1008.5
20260506101603 62 188 0.0 4.3 0.00 0.00 0.00 75 1008.7
20260506101047 62 0 0.9 3.5 0.00 0.00 0.00 74 1008.8
20260506100543 62 214 0.9 4.3 0.00 0.00 0.00 74 1008.6
20260506100055 62 0 0.0 6.1 0.00 0.00 0.00 74 1008.7
20260506095547 62 207 1.7 8.7 0.00 0.00 0.00 73 1008.6
20260506095045 62 213 1.7 8.7 0.00 0.00 0.00 73 1008.5
20260506094616 62 320 1.7 7.8 0.00 0.00 0.00 74 1008.5
20260506094043 62 0 1.7 7.8 0.00 0.00 0.00 73 1008.6
20260506093543 62 193 1.7 7.8 0.00 0.00 0.00 73 1008.6
20260506093053 62 0 1.7 7.0 0.00 0.00 0.00 73 1008.6
20260506092545 62 224 1.7 7.0 0.00 0.00 0.00 73 1008.5
20260506092044 62 232 1.7 7.0 0.00 0.00 0.00 73 1008.4
20260506091556 62 197 0.9 7.8 0.00 0.00 0.00 72 1008.4
20260506091043 62 0 2.6 7.8 0.00 0.00 0.00 72 1008.5
20260506090543 62 232 1.7 7.8 0.00 0.00 0.00 72 1008.4
20260506090053 62 231 0.0 3.5 0.00 0.00 0.00 72 1008.2
20260506085543 62 0 0.0 3.5 0.00 0.00 0.00 71 1008.3
20260506085043 62 144 0.9 4.3 0.00 0.00 0.00 71 1008.4
20260506084550 62 205 0.9 6.1 0.00 0.00 0.00 70 1008.4
20260506084046 63 0 1.7 6.1 0.00 0.00 0.00 70 1008.3
20260506083544 63 206 1.7 6.1 0.00 0.00 0.00 70 1008.3
20260506083049 63 218 1.7 7.0 0.00 0.00 0.00 70 1008.3
20260506082548 63 233 0.9 7.0 0.00 0.00 0.00 69 1008.3
20260506082044 63 0 0.0 4.3 0.00 0.00 0.00 69 1008.3